Hourly Weather Barra do Bugres

Today, 19 April, Monday

Time Temperature Precipitation Wind Pressure Humidity
00:00 +26°C° 0.2 mm 1 mps 744 mmHg 79%
01:00 +26°C° 0.2 mm 1 mps 744 mmHg 83%
02:00 +23°C° 0.2 mm 0 mps 744 mmHg 87%
03:00 +23°C° 0.2 mm 0 mps 744 mmHg 89%
04:00 +23°C° 0.2 mm 0 mps 744 mmHg 90%
05:00 +23°C° 0.2 mm 0 mps 744 mmHg 92%
06:00 +23°C° 0.1 mm 0 mps 745 mmHg 90%
07:00 +24°C° 0.1 mm 0 mps 745 mmHg 89%
08:00 +25°C° 0.1 mm 0 mps 746 mmHg 87%
09:00 +27°C° 0.1 mm 0 mps 746 mmHg 78%
10:00 +29°C° 0.1 mm 0 mps 745 mmHg 68%
11:00 +31°C° 0.1 mm 0 mps 745 mmHg 58%
12:00 +33°C° 0.4 mm 1 mps 745 mmHg 56%
13:00 +34°C° 0.4 mm 1 mps 744 mmHg 54%
14:00 +34°C° 0.4 mm 1 mps 743 mmHg 52%
15:00 +33°C° 0 mm 1 mps 743 mmHg 57%
16:00 +32°C° 0 mm 1 mps 743 mmHg 63%
17:00 +31°C° 0 mm 1 mps 742 mmHg 69%
18:00 +29°C° 0.7 mm 1 mps 743 mmHg 75%
19:00 +27°C° 0.7 mm 1 mps 744 mmHg 81%
20:00 +24°C° 0.7 mm 0 mps 744 mmHg 86%
21:00 +25°C° 1.8 mm 1 mps 744 mmHg 90%
22:00 +25°C° 1.8 mm 1 mps 745 mmHg 93%
23:00 +24°C° 1.8 mm 1 mps 745 mmHg 96%

Tomorrow, 20 April, Tuesday

Time Temperature Precipitation Wind Pressure Humidity
00:00 +24°C° 0.2 mm 1 mps 744 mmHg 96%
01:00 +22°C° 0.2 mm 0 mps 744 mmHg 96%
02:00 +22°C° 0.2 mm 0 mps 744 mmHg 96%
03:00 +21°C° 0.2 mm 0 mps 744 mmHg 97%
04:00 +21°C° 0.2 mm 0 mps 744 mmHg 97%
05:00 +21°C° 0.2 mm 0 mps 744 mmHg 97%
06:00 +22°C° 0.2 mm 0 mps 745 mmHg 94%
07:00 +23°C° 0.2 mm 0 mps 745 mmHg 91%
08:00 +24°C° 0.2 mm 0 mps 746 mmHg 87%
09:00 +26°C° 0.1 mm 0 mps 746 mmHg 78%
10:00 +29°C° 0.1 mm 0 mps 746 mmHg 68%
11:00 +31°C° 0.1 mm 0 mps 746 mmHg 58%
12:00 +31°C° 0 mm 0 mps 745 mmHg 55%
13:00 +32°C° 0 mm 0 mps 744 mmHg 52%
14:00 +35°C° 0 mm 1 mps 743 mmHg 49%
15:00 +33°C° 0.2 mm 1 mps 743 mmHg 58%
16:00 +31°C° 0.2 mm 1 mps 742 mmHg 67%
17:00 +29°C° 0.2 mm 1 mps 742 mmHg 75%
18:00 +28°C° 0.3 mm 1 mps 743 mmHg 79%
19:00 +25°C° 0.3 mm 0 mps 743 mmHg 82%
20:00 +24°C° 0.3 mm 0 mps 744 mmHg 86%
21:00 +23°C° 0.4 mm 0 mps 744 mmHg 88%
22:00 +23°C° 0.4 mm 0 mps 744 mmHg 90%
23:00 +22°C° 0.4 mm 0 mps 744 mmHg 92%

Day after tomorrow, 21 April, Wednesday

Time Temperature Precipitation Wind Pressure Humidity
00:00 +22°C° 0.5 mm 0 mps 744 mmHg 94%
01:00 +22°C° 0.5 mm 0 mps 744 mmHg 95%
02:00 +23°C° 0.5 mm 1 mps 744 mmHg 96%
03:00 +23°C° 0 mm 1 mps 744 mmHg 96%
04:00 +23°C° 0 mm 1 mps 744 mmHg 97%
05:00 +23°C° 0 mm 1 mps 744 mmHg 97%
06:00 +24°C° 0 mm 1 mps 744 mmHg 94%
07:00 +25°C° 0 mm 1 mps 745 mmHg 91%
08:00 +26°C° 0 mm 1 mps 745 mmHg 87%
09:00 +29°C° 0 mm 1 mps 745 mmHg 76%
10:00 +31°C° 0 mm 1 mps 745 mmHg 64%
11:00 +34°C° 0 mm 1 mps 745 mmHg 53%
12:00 +34°C° 0 mm 1 mps 744 mmHg 50%
13:00 +35°C° 0 mm 1 mps 743 mmHg 47%
14:00 +35°C° 0 mm 1 mps 742 mmHg 44%
15:00 +34°C° 0 mm 1 mps 742 mmHg 51%
16:00 +30°C° 0 mm 0 mps 742 mmHg 57%
17:00 +29°C° 0 mm 0 mps 742 mmHg 63%
18:00 +28°C° 0 mm 0 mps 743 mmHg 64%
19:00 +30°C° 0 mm 1 mps 743 mmHg 64%
20:00 +29°C° 0 mm 1 mps 744 mmHg 64%
21:00 +29°C° 0 mm 1 mps 744 mmHg 67%
22:00 +28°C° 0 mm 1 mps 744 mmHg 69%
23:00 +28°C° 0 mm 1 mps 744 mmHg 72%

22 April, Thursday

Time Temperature Precipitation Wind Pressure Humidity
00:00 +27°C° 0 mm 1 mps 744 mmHg 75%
01:00 +27°C° 0 mm 1 mps 744 mmHg 77%
02:00 +26°C° 0 mm 1 mps 743 mmHg 79%
03:00 +26°C° 0 mm 1 mps 743 mmHg 81%
04:00 +26°C° 0 mm 1 mps 744 mmHg 82%
05:00 +26°C° 0 mm 1 mps 744 mmHg 83%
06:00 +26°C° 0 mm 1 mps 744 mmHg 80%
07:00 +27°C° 0 mm 1 mps 745 mmHg 77%
08:00 +28°C° 0 mm 1 mps 745 mmHg 75%
09:00 +30°C° 0 mm 1 mps 745 mmHg 66%
10:00 +32°C° 0 mm 2 mps 745 mmHg 58%
11:00 +35°C° 0 mm 2 mps 745 mmHg 50%
12:00 +35°C° 0 mm 2 mps 744 mmHg 47%
13:00 +36°C° 0 mm 2 mps 744 mmHg 44%
14:00 +37°C° 0 mm 2 mps 743 mmHg 41%
15:00 +34°C° 0 mm 1 mps 742 mmHg 48%
16:00 +32°C° 0 mm 1 mps 742 mmHg 55%
17:00 +30°C° 0 mm 1 mps 742 mmHg 62%
18:00 +29°C° 0 mm 1 mps 743 mmHg 64%
19:00 +29°C° 0 mm 1 mps 743 mmHg 67%
20:00 +28°C° 0 mm 1 mps 743 mmHg 69%
21:00 +27°C° 0 mm 1 mps 744 mmHg 72%
22:00 +26°C° 0 mm 1 mps 744 mmHg 76%
23:00 +25°C° 0 mm 1 mps 745 mmHg 79%

23 April, Friday

Time Temperature Precipitation Wind Pressure Humidity
00:00 +25°C° 0 mm 1 mps 744 mmHg 81%
01:00 +25°C° 0 mm 1 mps 744 mmHg 83%
02:00 +24°C° 0 mm 1 mps 744 mmHg 85%
03:00 +24°C° 0 mm 1 mps 744 mmHg 87%
04:00 +24°C° 0 mm 1 mps 744 mmHg 88%
05:00 +23°C° 0 mm 1 mps 745 mmHg 90%
06:00 +25°C° 0 mm 1 mps 745 mmHg 84%
07:00 +26°C° 0 mm 1 mps 745 mmHg 78%
08:00 +28°C° 0 mm 1 mps 746 mmHg 72%
09:00 +30°C° 0 mm 2 mps 746 mmHg 64%
10:00 +32°C° 0 mm 2 mps 746 mmHg 56%
11:00 +35°C° 0 mm 2 mps 745 mmHg 48%
12:00 +36°C° 0 mm 2 mps 744 mmHg 44%
13:00 +36°C° 0 mm 2 mps 744 mmHg 41%
14:00 +37°C° 0 mm 2 mps 743 mmHg 37%
15:00 +36°C° 0 mm 2 mps 743 mmHg 45%
16:00 +34°C° 0 mm 2 mps 742 mmHg 52%
17:00 +31°C° 0 mm 2 mps 742 mmHg 60%
18:00 +30°C° 0 mm 2 mps 743 mmHg 63%
19:00 +29°C° 0 mm 1 mps 743 mmHg 66%
20:00 +28°C° 0 mm 1 mps 744 mmHg 69%
21:00 +28°C° 0 mm 1 mps 744 mmHg 71%
22:00 +27°C° 0 mm 1 mps 744 mmHg 74%
23:00 +27°C° 0 mm 1 mps 744 mmHg 76%

24 April, Saturday

Time Temperature Precipitation Wind Pressure Humidity
00:00 +26°C° 0 mm 1 mps 744 mmHg 79%
01:00 +26°C° 0 mm 1 mps 743 mmHg 82%
02:00 +25°C° 0 mm 1 mps 743 mmHg 85%
03:00 +25°C° 0 mm 1 mps 743 mmHg 86%
04:00 +25°C° 0 mm 1 mps 743 mmHg 87%
05:00 +24°C° 0 mm 1 mps 743 mmHg 88%
06:00 +26°C° 0 mm 1 mps 744 mmHg 83%
07:00 +27°C° 0 mm 2 mps 744 mmHg 77%
08:00 +28°C° 0 mm 2 mps 744 mmHg 72%
09:00 +30°C° 0 mm 2 mps 744 mmHg 64%
10:00 +33°C° 0 mm 3 mps 744 mmHg 57%
11:00 +35°C° 0 mm 3 mps 744 mmHg 49%
12:00 +35°C° 0 mm 3 mps 743 mmHg 49%
13:00 +36°C° 0 mm 3 mps 742 mmHg 48%
14:00 +36°C° 0 mm 3 mps 742 mmHg 47%
15:00 +35°C° 0 mm 2 mps 742 mmHg 53%
16:00 +32°C° 0 mm 2 mps 741 mmHg 60%
17:00 +31°C° 0 mm 1 mps 741 mmHg 66%
18:00 +30°C° 0 mm 1 mps 742 mmHg 67%
19:00 +30°C° 0 mm 1 mps 742 mmHg 68%
20:00 +30°C° 0 mm 1 mps 743 mmHg 68%
21:00 +29°C° 0 mm 1 mps 743 mmHg 71%
22:00 +28°C° 0 mm 1 mps 743 mmHg 73%
23:00 +28°C° 0 mm 1 mps 744 mmHg 75%
Show more